Thunderstorms From: 25-05-2018 05:05 Until: 26-05-2018 05:00 warning for: Thunderstorms Level: Yellow info button

Although rather usual in this region, locally or potentially dangerous phenomena are expected. (such as local winds, summer thunderstorms, rising streams or high waves) Be aware and pay attention to the latest weather updates, especially if you carry out activities exposed to weather or close to a stream or shoreline. 


Meteo18 Weather Cam more information Meteo18 Weather Cam


warning for Thunderstorms more information blitzortung!


Rain radar more information rain snow radar


Visit our other weather sites:

Template documentation
and downloads

And another site



Weather Underground History page Text

Daily Summary for February 4, 2017 Units:  Metric    English   Both
« Previous Day
Next Day »
Daily Weekly Monthly Yearly Custom
  High: Low: Average:
Temperature: -17.8 °C -16.2 °C -14.4 °C
Dew Point: -17.8 °C -17 °C -15.6 °C
Humidity: Humidity % 73 % 86 %
Wind Speed: 0 km/h 0 km/h 21.7 km/h
Wind Gust: 0 km/h - -
Wind:- - SSW
Pressure: 0 hPa 33490.9 hPa -
Precipitation: 393.7 mm    
Historical Graphs
 
 
Tabular Data for February 4, 2017
Time Temperature Dew Point Pressure Wind Wind Speed Wind Gust Humidity Rainfall Rate (Hourly)
-17.8 °C -17.8 °C 0 hPa Calm     Humidity % 0 mm
00:02 -15.1 °C -15.9 °C 34073.3 hPa ESE 10.3 km/h 20.8 km/h 90 % 0 mm
00:07 -15.1 °C -16 °C 34073.3 hPa SSE 5.1 km/h 20.8 km/h 89 % 0 mm
00:12 -15.1 °C -16 °C 34063.2 hPa SSE 10.3 km/h 18.2 km/h 89 % 0 mm
00:17 -15.1 °C -16 °C 34063.2 hPa SSE 7.7 km/h 18.2 km/h 89 % 0 mm
00:22 -15.1 °C -16 °C 34063.2 hPa SSE 2.6 km/h 18.2 km/h 89 % 0 mm
00:27 -15.1 °C -16 °C 34063.2 hPa SSE 2.6 km/h 18.2 km/h 89 % 0 mm
00:32 -15.1 °C -16 °C 34049.6 hPa SSE 2.6 km/h 18.2 km/h 89 % 0 mm
00:42 -15.1 °C -16 °C 34029.3 hPa SE 5.1 km/h 18.2 km/h 89 % 0 mm
00:47 -15.1 °C -16 °C 34015.8 hPa SE 2.6 km/h 18.2 km/h 89 % 0 mm
00:52 -15.1 °C -16.1 °C 34005.6 hPa ESE 12.9 km/h 18.2 km/h 88 % 0 mm
00:57 -14.9 °C -15.9 °C 33992.1 hPa ESE 5.1 km/h 18.2 km/h 88 % 0 mm
01:02 -14.9 °C -16 °C 33981.9 hPa ESE 5.1 km/h 23.3 km/h 87 % 0 mm
01:07 -14.9 °C -16 °C 33992.1 hPa SE 7.7 km/h 23.3 km/h 87 % 0 mm
01:12 -14.9 °C -15.9 °C 33981.9 hPa SE 15.6 km/h 20.8 km/h 88 % 0 mm
01:17 -14.9 °C -15.9 °C 33981.9 hPa SSE 5.1 km/h 18.2 km/h 88 % 0 mm
01:22 -14.9 °C -16.1 °C 33971.7 hPa SE 7.7 km/h 18.2 km/h 87 % 0 mm
01:27 -14.9 °C -16 °C 33958.2 hPa SE 15.6 km/h 18.2 km/h 87 % 0 mm
01:32 -14.9 °C -16 °C 33948 hPa SE 10.3 km/h 20.8 km/h 87 % 0 mm
01:37 -14.8 °C -16.1 °C 33937.9 hPa SE 23.3 km/h 23.3 km/h 86 % 0 mm
01:42 -14.8 °C -16.1 °C 33948 hPa SE 10.3 km/h 23.3 km/h 86 % 0 mm
01:47 -14.9 °C -16.1 °C 33948 hPa ESE 12.9 km/h 23.3 km/h 86 % 0 mm
01:52 -14.9 °C -16.1 °C 33948 hPa SSE 10.3 km/h 23.3 km/h 86 % 0 mm
01:57 -14.9 °C -16.1 °C 33948 hPa South 10.3 km/h 23.3 km/h 86 % 0 mm
02:02 -14.9 °C -16.1 °C 33948 hPa SE 12.9 km/h 18.2 km/h 87 % 0 mm
02:07 -14.9 °C -16.1 °C 33948 hPa SE 10.3 km/h 18.2 km/h 87 % 0 mm
02:12 -14.9 °C -16.1 °C 33937.9 hPa ESE 7.7 km/h 18.2 km/h 87 % 0 mm
02:17 -14.9 °C -16.1 °C 33924.3 hPa SSE 2.6 km/h 18.2 km/h 87 % 0 mm
02:22 -14.9 °C -16.1 °C 33924.3 hPa SSE 2.6 km/h 15.6 km/h 87 % 0 mm
02:27 -14.9 °C -16.1 °C 33924.3 hPa SE 7.7 km/h 12.9 km/h 87 % 0 mm
02:32 -14.9 °C -16.1 °C 33924.3 hPa Calm   23.3 km/h 87 % 0 mm
02:37 -14.9 °C -16.1 °C 33914.2 hPa SE 7.7 km/h 23.3 km/h 87 % 0 mm
02:42 -14.9 °C -16.1 °C 33900.6 hPa SE 10.3 km/h 15.6 km/h 87 % 0 mm
02:47 -14.9 °C -16 °C 33866.8 hPa ESE 18.2 km/h 18.2 km/h 87 % 0 mm
02:52 -14.8 °C -16 °C 33880.3 hPa SSE 12.9 km/h 33.6 km/h 86 % 0 mm
02:57 -14.7 °C -15.9 °C 33880.3 hPa East 23.3 km/h 36.2 km/h 86 % 0 mm
03:02 -14.6 °C -15.9 °C 33880.3 hPa SSE 7.7 km/h 36.2 km/h 85 % 0 mm
03:07 -14.6 °C -15.9 °C 33890.5 hPa SSE 2.6 km/h 28.5 km/h 85 % 0 mm
03:12 -14.6 °C -15.9 °C 33890.5 hPa SSE 5.1 km/h 28.5 km/h 85 % 0 mm
03:17 -14.6 °C -15.9 °C 33880.3 hPa SE 2.6 km/h 23.3 km/h 84 % 0 mm
03:22 -14.6 °C -15.9 °C 33880.3 hPa SE 7.7 km/h 23.3 km/h 84 % 0 mm
03:27 -14.5 °C -16 °C 33880.3 hPa SSE 5.1 km/h 20.8 km/h 83 % 0 mm
03:32 -14.5 °C -16 °C 33880.3 hPa SSE 7.7 km/h 25.9 km/h 83 % 0 mm
03:37 -14.5 °C -16 °C 33866.8 hPa SE 2.6 km/h 25.9 km/h 83 % 0 mm
03:42 -14.4 °C -16 °C 33866.8 hPa SE 15.6 km/h 20.8 km/h 82 % 0 mm
03:47 -14.4 °C -16 °C 33866.8 hPa ESE 18.2 km/h 25.9 km/h 82 % 0 mm
03:52 -14.4 °C -15.9 °C 33856.6 hPa SE 10.3 km/h 31.1 km/h 82 % 0 mm
03:57 -14.5 °C -16.1 °C 33856.6 hPa ESE 7.7 km/h 31.1 km/h 82 % 0 mm
04:02 -14.5 °C -16 °C 33856.6 hPa SE 10.3 km/h 23.3 km/h 83 % 0 mm
04:07 -14.6 °C -16.1 °C 33856.6 hPa ESE 10.3 km/h 23.3 km/h 83 % 0 mm
04:12 -14.6 °C -15.9 °C 33856.6 hPa SE 20.8 km/h 31.1 km/h 84 % 7.62 mm
04:17 -14.6 °C -15.9 °C 33843.1 hPa ESE 23.3 km/h 33.6 km/h 85 % 12.7 mm
04:22 -14.7 °C -15.9 °C 33832.9 hPa SE 15.6 km/h 49.2 km/h 86 % 25.4 mm
04:27 -14.8 °C -15.8 °C 33832.9 hPa ESE 7.7 km/h 49.2 km/h 88 % 33.02 mm
04:32 -14.9 °C -15.8 °C 33832.9 hPa SE 20.8 km/h 49.2 km/h 89 % 38.1 mm
04:37 -14.9 °C -15.9 °C 33832.9 hPa East 25.9 km/h 36.2 km/h 89 % 45.72 mm
04:42 -14.9 °C -15.8 °C 33822.8 hPa SSE 20.8 km/h 36.2 km/h 90 % 58.42 mm
04:47 -15 °C -15.7 °C 33809.2 hPa ESE 10.3 km/h 25.9 km/h 91 % 63.5 mm
04:52 -15 °C -15.7 °C 33809.2 hPa ESE 20.8 km/h 25.9 km/h 91 % 71.12 mm
04:57 -15 °C -15.7 °C 33799.1 hPa SE 12.9 km/h 36.2 km/h 91 % 83.82 mm
05:02 -15.1 °C -15.7 °C 33788.9 hPa SE 7.7 km/h 36.2 km/h 92 % 83.82 mm
05:12 -15.1 °C -15.6 °C 33788.9 hPa SE 25.9 km/h 25.9 km/h 93 % 83.82 mm
05:17 -14.9 °C -15.6 °C 33788.9 hPa SE 20.8 km/h 28.5 km/h 92 % 76.2 mm
05:22 -14.9 °C -15.6 °C 33775.4 hPa SE 20.8 km/h 31.1 km/h 92 % 71.12 mm
05:27 -14.9 °C -15.6 °C 33775.4 hPa SE 25.9 km/h 33.6 km/h 92 % 71.12 mm
05:37 -14.8 °C -15.4 °C 33765.2 hPa SSE 23.3 km/h 46.7 km/h 92 % 63.5 mm
05:42 -14.8 °C -15.4 °C 33765.2 hPa SE 25.9 km/h 46.7 km/h 92 % 58.42 mm
05:47 -14.7 °C -15.4 °C 33751.6 hPa SE 15.6 km/h 46.7 km/h 92 % 58.42 mm
05:52 -14.8 °C -15.4 °C 33751.6 hPa East 18.2 km/h 44.1 km/h 92 % 58.42 mm
05:57 -14.8 °C -15.4 °C 33751.6 hPa SE 15.6 km/h 41.4 km/h 92 % 50.8 mm
06:02 -14.7 °C -15.4 °C 33751.6 hPa SSE 20.8 km/h 41.4 km/h 92 % 45.72 mm
06:07 -14.7 °C -15.4 °C 33751.6 hPa SSE 10.3 km/h 41.4 km/h 92 % 45.72 mm
06:12 -14.8 °C -15.3 °C 33741.5 hPa SSE 15.6 km/h 36.2 km/h 93 % 45.72 mm
06:17 -14.7 °C -15.3 °C 33741.5 hPa SSE 12.9 km/h 36.2 km/h 93 % 38.1 mm
06:22 -14.6 °C -15.2 °C 33731.3 hPa South 25.9 km/h 36.2 km/h 93 % 38.1 mm
06:27 -14.6 °C -15.1 °C 33731.3 hPa SSE 23.3 km/h 46.7 km/h 93 % 38.1 mm
06:32 -14.5 °C -15.2 °C 33717.8 hPa SE 18.2 km/h 46.7 km/h 92 % 38.1 mm
06:37 -14.4 °C -15.1 °C 33717.8 hPa SSW 20.8 km/h 46.7 km/h 92 % 38.1 mm
06:42 -14.3 °C -15 °C 33707.6 hPa SE 12.9 km/h 44.1 km/h 92 % 38.1 mm
06:47 -14.3 °C -14.9 °C 33694.1 hPa SSE 15.6 km/h 41.4 km/h 93 % 33.02 mm
06:52 -14.3 °C -14.8 °C 33694.1 hPa South 25.9 km/h 41.4 km/h 93 % 38.1 mm
07:02 -14.2 °C -14.9 °C 33683.9 hPa SSE 12.9 km/h 41.4 km/h 92 % 25.4 mm
07:07 -14.2 °C -14.9 °C 33673.8 hPa SSE 5.1 km/h 33.6 km/h 92 % 25.4 mm
07:12 -14.2 °C -14.9 °C 33673.8 hPa South 7.7 km/h 33.6 km/h 92 % 20.32 mm
07:17 -14.2 °C -15 °C 33660.2 hPa ESE 10.3 km/h 28.5 km/h 91 % 20.32 mm
07:22 -14.2 °C -15 °C 33660.2 hPa SSW 12.9 km/h 28.5 km/h 91 % 12.7 mm
07:27 -14.2 °C -15 °C 33660.2 hPa ESE 15.6 km/h 31.1 km/h 91 % 12.7 mm
07:32 -14.3 °C -15.1 °C 33650.1 hPa SSW 23.3 km/h 33.6 km/h 91 % 12.7 mm
07:37 -14.3 °C -15.1 °C 33639.9 hPa ESE 18.2 km/h 33.6 km/h 91 % 12.7 mm
07:42 -14.3 °C -15.1 °C 33639.9 hPa SE 15.6 km/h 33.6 km/h 91 % 7.62 mm
07:47 -14.3 °C -15.1 °C 33639.9 hPa SE 5.1 km/h 31.1 km/h 91 % 0 mm
07:52 -14.3 °C -15.1 °C 33639.9 hPa SSE 10.3 km/h 31.1 km/h 91 % 0 mm
07:57 -14.3 °C -15.1 °C 33626.4 hPa SE 18.2 km/h 31.1 km/h 91 % 0 mm
08:02 -14.3 °C -15.1 °C 33626.4 hPa SE 15.6 km/h 31.1 km/h 91 % 0 mm
08:07 -14.3 °C -15.1 °C 33616.2 hPa SE 28.5 km/h 41.4 km/h 90 % 0 mm
08:12 -14.2 °C -15.1 °C 33602.7 hPa SE 20.8 km/h 44.1 km/h 90 % 0 mm
08:17 -14.1 °C -15.1 °C 33592.5 hPa ESE 20.8 km/h 44.1 km/h 89 % 0 mm
08:22 -14.1 °C -15 °C 33592.5 hPa ESE 15.6 km/h 57 km/h 89 % 0 mm
08:32 -14 °C -15 °C 33582.3 hPa ESE 38.8 km/h 49.2 km/h 88 % 0 mm
08:37 -13.8 °C -14.9 °C 33568.8 hPa South 36.2 km/h 49.2 km/h 87 % 0 mm
08:42 -13.7 °C -14.9 °C 33568.8 hPa SE 18.2 km/h 54.4 km/h 86 % 7.62 mm
08:47 -13.8 °C -14.9 °C 33545.1 hPa SE 31.1 km/h 59.5 km/h 87 % 12.7 mm
08:52 -13.8 °C -14.9 °C 33545.1 hPa SSE 15.6 km/h 59.5 km/h 87 % 12.7 mm
08:57 -13.8 °C -14.9 °C 33545.1 hPa South 44.1 km/h 59.5 km/h 88 % 12.7 mm
09:02 -13.8 °C -14.9 °C 33534.9 hPa SE 25.9 km/h 75.2 km/h 87 % 20.32 mm
09:07 -13.7 °C -14.8 °C 33534.9 hPa SSW 41.4 km/h 75.2 km/h 87 % 25.4 mm
09:12 -13.7 °C -14.8 °C 33524.8 hPa SSE 25.9 km/h 75.2 km/h 87 % 25.4 mm
09:17 -13.7 °C -14.8 °C 33524.8 hPa SE 15.6 km/h 62.1 km/h 88 % 38.1 mm
09:22 -13.8 °C -14.7 °C 33511.2 hPa SE 38.8 km/h 69.8 km/h 89 % 58.42 mm
09:32 -13.9 °C -14.8 °C 33511.2 hPa SE 20.8 km/h 69.8 km/h 90 % 83.82 mm
09:37 -13.9 °C -14.7 °C 33501.1 hPa SSE 44.1 km/h 62.1 km/h 91 % 91.44 mm
09:42 -13.9 °C -14.6 °C 33501.1 hPa South 36.2 km/h 62.1 km/h 92 % 96.52 mm
09:47 -13.8 °C -14.4 °C 33490.9 hPa SSW 54.4 km/h 62.1 km/h 93 % 109.22 mm
09:52 -13.8 °C -14.4 °C 33490.9 hPa SSW 38.8 km/h 72.6 km/h 93 % 116.84 mm
09:57 -13.7 °C -14.3 °C 33490.9 hPa SSW 64.7 km/h 72.6 km/h 93 % 116.84 mm
10:02 -13.5 °C -14.2 °C 33490.9 hPa WSW 88 km/h 103.6 km/h 92 % 121.92 mm
10:07 -13.4 °C -14.2 °C 33501.1 hPa SW 57 km/h 103.6 km/h 91 % 116.84 mm
10:12 -13.4 °C -14.2 °C 33511.2 hPa WSW 93.2 km/h 103.6 km/h 91 % 116.84 mm
10:17 -13.4 °C -14.2 °C 33524.8 hPa WSW 62.1 km/h 103.6 km/h 90 % 109.22 mm
10:22 -13.4 °C -14.2 °C 33524.8 hPa WSW 57 km/h 103.6 km/h 90 % 91.44 mm
10:27 -13.4 °C -14.2 °C 33545.1 hPa SW 64.7 km/h 103.6 km/h 90 % 83.82 mm
10:32 -13.4 °C -14.2 °C 33558.6 hPa WSW 54.4 km/h 103.6 km/h 90 % 83.82 mm
10:37 -13.4 °C -14.2 °C 33568.8 hPa WSW 44.1 km/h 103.6 km/h 90 % 76.2 mm
10:42 -13.4 °C -14.2 °C 33582.3 hPa SW 54.4 km/h 103.6 km/h 91 % 58.42 mm
10:47 -13.4 °C -14.2 °C 33592.5 hPa SW 46.7 km/h 103.6 km/h 91 % 58.42 mm
10:57 -13.5 °C -14.1 °C 33602.7 hPa SW 25.9 km/h 88 km/h 93 % 58.42 mm
11:02 -13.5 °C -14.2 °C 33616.2 hPa WSW 20.8 km/h 77.7 km/h 92 % 50.8 mm
11:07 -13.5 °C -14.1 °C 33626.4 hPa SSW 36.2 km/h 77.7 km/h 93 % 45.72 mm
11:12 -13.5 °C -14.1 °C 33626.4 hPa SW 33.6 km/h 77.7 km/h 93 % 50.8 mm
11:17 -13.5 °C -14.1 °C 33639.9 hPa WSW 38.8 km/h 77.7 km/h 93 % 45.72 mm
11:22 -13.5 °C -14.1 °C 33650.1 hPa WSW 44.1 km/h 82.9 km/h 93 % 45.72 mm
11:27 -13.6 °C -14.2 °C 33650.1 hPa WSW 33.6 km/h 82.9 km/h 93 % 38.1 mm
11:32 -13.6 °C -14.1 °C 33660.2 hPa West 59.5 km/h 95.8 km/h 94 % 33.02 mm
11:37 -13.6 °C -14.2 °C 33660.2 hPa West 51.8 km/h 95.8 km/h 93 % 33.02 mm
11:42 -13.4 °C -14.1 °C 33683.9 hPa West 23.3 km/h 95.8 km/h 93 % 25.4 mm
11:47 -13.5 °C -14.1 °C 33683.9 hPa WSW 46.7 km/h 95.8 km/h 93 % 20.32 mm
11:52 -13.5 °C -14 °C 33694.1 hPa West 31.1 km/h 95.8 km/h 94 % 12.7 mm
11:57 -13.6 °C -14.1 °C 33694.1 hPa WSW 57 km/h 80.3 km/h 94 % 12.7 mm
12:02 -13.6 °C -14.1 °C 33707.6 hPa West 64.7 km/h 69.8 km/h 94 % 12.7 mm
12:07 -13.6 °C -14.1 °C 33707.6 hPa West 46.7 km/h 82.9 km/h 94 % 12.7 mm
12:12 -13.6 °C -14.1 °C 33717.8 hPa West 44.1 km/h 82.9 km/h 94 % 12.7 mm
12:17 -13.7 °C -14.2 °C 33731.3 hPa WSW 67.3 km/h 82.9 km/h 94 % 12.7 mm
12:22 -13.7 °C -14.3 °C 33731.3 hPa WSW 69.8 km/h 82.9 km/h 93 % 20.32 mm
12:27 -13.7 °C -14.5 °C 33741.5 hPa West 59.5 km/h 82.9 km/h 91 % 20.32 mm
12:32 -13.7 °C -14.4 °C 33751.6 hPa West 41.4 km/h 95.8 km/h 92 % 12.7 mm
12:37 -13.9 °C -14.7 °C 33765.2 hPa WNW 54.4 km/h 98.3 km/h 91 % 12.7 mm
12:42 -14.1 °C -14.9 °C 33775.4 hPa West 80.3 km/h 98.3 km/h 90 % 20.32 mm
12:47 -14.2 °C -15 °C 33788.9 hPa West 75.2 km/h 98.3 km/h 90 % 20.32 mm
12:52 -14.2 °C -15.2 °C 33799.1 hPa WSW 69.8 km/h 103.6 km/h 89 % 20.32 mm
12:57 -14.3 °C -15.5 °C 33809.2 hPa West 80.3 km/h 103.6 km/h 86 % 20.32 mm
13:02 -14.3 °C -15.6 °C 33822.8 hPa West 51.8 km/h 106.2 km/h 86 % 20.32 mm
13:07 -14.3 °C -15.7 °C 33822.8 hPa WNW 59.5 km/h 106.2 km/h 84 % 12.7 mm
13:12 -14.3 °C -15.5 °C 33843.1 hPa West 31.1 km/h 111.4 km/h 86 % 20.32 mm
13:17 -14.3 °C -15.4 °C 33843.1 hPa WSW 69.8 km/h 111.4 km/h 87 % 12.7 mm
13:22 -14.3 °C -15.6 °C 33856.6 hPa West 59.5 km/h 111.4 km/h 86 % 12.7 mm
13:27 -14.3 °C -15.6 °C 33856.6 hPa West 49.2 km/h 85.5 km/h 85 % 12.7 mm
13:32 -14.3 °C -15.6 °C 33866.8 hPa WSW 25.9 km/h 85.5 km/h 85 % 12.7 mm
13:37 -14.3 °C -15.6 °C 33880.3 hPa West 51.8 km/h 75.2 km/h 85 % 12.7 mm
13:42 -14.2 °C -15.5 °C 33890.5 hPa WNW 33.6 km/h 75.2 km/h 85 % 7.62 mm
13:47 -14.2 °C -15.6 °C 33890.5 hPa West 51.8 km/h 77.7 km/h 84 % 7.62 mm
13:52 -14.2 °C -15.6 °C 33900.6 hPa NW 51.8 km/h 77.7 km/h 84 % 7.62 mm
13:57 -14.1 °C -15.5 °C 33900.6 hPa West 20.8 km/h 90.6 km/h 84 % 7.62 mm
14:02 -14.1 °C -15.5 °C 33914.2 hPa WSW 36.2 km/h 90.6 km/h 84 % 7.62 mm
14:07 -14.1 °C -15.4 °C 33924.3 hPa WSW 57 km/h 90.6 km/h 85 % 0 mm
14:12 -14.1 °C -15.4 °C 33924.3 hPa WSW 51.8 km/h 77.7 km/h 85 % 0 mm
14:17 -14.1 °C -15.4 °C 33937.9 hPa WSW 23.3 km/h 77.7 km/h 85 % 0 mm
14:27 -14.1 °C -15.3 °C 33948 hPa West 59.5 km/h 62.1 km/h 85 % 0 mm
14:32 -14 °C -15.4 °C 33948 hPa WNW 44.1 km/h 67.3 km/h 84 % 0 mm
14:37 -13.9 °C -15.3 °C 33958.2 hPa West 38.8 km/h 69.8 km/h 84 % 0 mm
14:42 -13.9 °C -15.4 °C 33958.2 hPa West 36.2 km/h 69.8 km/h 83 % 0 mm
14:47 -13.8 °C -15.3 °C 33971.7 hPa West 51.8 km/h 69.8 km/h 83 % 0 mm
14:52 -13.8 °C -15.4 °C 33971.7 hPa West 41.4 km/h 69.8 km/h 82 % 0 mm
14:57 -13.8 °C -15.4 °C 33971.7 hPa West 25.9 km/h 69.8 km/h 82 % 0 mm
15:02 -13.7 °C -15.4 °C 33981.9 hPa WSW 38.8 km/h 75.2 km/h 81 % 0 mm
15:07 -13.7 °C -15.3 °C 33981.9 hPa WSW 33.6 km/h 77.7 km/h 81 % 0 mm
15:12 -13.7 °C -15.3 °C 33992.1 hPa WSW 15.6 km/h 77.7 km/h 81 % 0 mm
15:17 -13.7 °C -15.3 °C 33992.1 hPa WSW 46.7 km/h 77.7 km/h 81 % 0 mm
15:22 -13.6 °C -15.4 °C 34005.6 hPa West 62.1 km/h 62.1 km/h 80 % 0 mm
15:27 -13.6 °C -15.3 °C 34005.6 hPa West 23.3 km/h 64.7 km/h 80 % 0 mm
15:32 -13.5 °C -15.3 °C 34005.6 hPa West 33.6 km/h 64.7 km/h 80 % 0 mm
15:37 -13.5 °C -15.4 °C 34015.8 hPa WSW 28.5 km/h 64.7 km/h 79 % 0 mm
15:42 -13.4 °C -15.4 °C 34015.8 hPa West 36.2 km/h 69.8 km/h 78 % 0 mm
15:47 -13.4 °C -15.6 °C 34029.3 hPa SW 25.9 km/h 69.8 km/h 77 % 0 mm
15:52 -13.4 °C -15.6 °C 34029.3 hPa WSW 28.5 km/h 69.8 km/h 77 % 0 mm
15:57 -13.4 °C -15.5 °C 34029.3 hPa WNW 23.3 km/h 57 km/h 77 % 0 mm
16:02 -13.4 °C -15.4 °C 34039.5 hPa WSW 31.1 km/h 49.2 km/h 78 % 0 mm
16:07 -13.3 °C -15.3 °C 34039.5 hPa West 28.5 km/h 49.2 km/h 78 % 0 mm
16:12 -13.3 °C -15.3 °C 34049.6 hPa WSW 28.5 km/h 54.4 km/h 78 % 0 mm
16:17 -13.3 °C -15.3 °C 34049.6 hPa WNW 23.3 km/h 54.4 km/h 78 % 0 mm
16:22 -13.3 °C -15.3 °C 34049.6 hPa West 38.8 km/h 54.4 km/h 78 % 0 mm
16:27 -13.3 °C -15.4 °C 34063.2 hPa West 28.5 km/h 57 km/h 77 % 0 mm
16:32 -13.3 °C -15.4 °C 34063.2 hPa WSW 25.9 km/h 57 km/h 77 % 0 mm
16:37 -13.3 °C -15.4 °C 34063.2 hPa West 31.1 km/h 57 km/h 77 % 0 mm
16:42 -13.2 °C -15.3 °C 34063.2 hPa WSW 28.5 km/h 49.2 km/h 77 % 0 mm
16:47 -13.1 °C -15.3 °C 34073.3 hPa SSW 15.6 km/h 46.7 km/h 76 % 0 mm
16:52 -13 °C -15.4 °C 34073.3 hPa West 15.6 km/h 46.7 km/h 74 % 0 mm
16:57 -13 °C -15.6 °C 34073.3 hPa West 44.1 km/h 44.1 km/h 73 % 0 mm
17:02 -13.1 °C -15.5 °C 34086.9 hPa West 38.8 km/h 51.8 km/h 74 % 0 mm
17:07 -13.1 °C -15.6 °C 34086.9 hPa WSW 23.3 km/h 51.8 km/h 74 % 0 mm
17:12 -13.2 °C -15.5 °C 34086.9 hPa WSW 18.2 km/h 51.8 km/h 75 % 0 mm
17:17 -13.3 °C -15.6 °C 34086.9 hPa WSW 23.3 km/h 44.1 km/h 75 % 0 mm
17:22 -13.3 °C -15.6 °C 34086.9 hPa WSW 15.6 km/h 33.6 km/h 76 % 0 mm
17:27 -13.3 °C -15.5 °C 34086.9 hPa SW 12.9 km/h 38.8 km/h 76 % 0 mm
17:32 -13.3 °C -15.6 °C 34086.9 hPa WSW 25.9 km/h 38.8 km/h 76 % 0 mm
17:37 -13.4 °C -15.6 °C 34086.9 hPa WSW 15.6 km/h 38.8 km/h 76 % 0 mm
17:42 -13.4 °C -15.7 °C 34086.9 hPa WSW 12.9 km/h 31.1 km/h 76 % 0 mm
17:47 -13.5 °C -15.6 °C 34086.9 hPa West 15.6 km/h 31.1 km/h 77 % 0 mm
17:52 -13.6 °C -15.7 °C 34086.9 hPa SW 12.9 km/h 28.5 km/h 77 % 0 mm
17:57 -13.6 °C -15.7 °C 34086.9 hPa WSW 10.3 km/h 25.9 km/h 77 % 0 mm
18:02 -13.7 °C -15.7 °C 34086.9 hPa WSW 15.6 km/h 25.9 km/h 78 % 0 mm
18:07 -13.7 °C -15.7 °C 34086.9 hPa West 15.6 km/h 25.9 km/h 78 % 0 mm
18:12 -13.7 °C -15.7 °C 34086.9 hPa SW 5.1 km/h 23.3 km/h 78 % 0 mm
18:17 -13.8 °C -15.8 °C 34086.9 hPa SW 10.3 km/h 20.8 km/h 78 % 0 mm
18:22 -13.8 °C -15.7 °C 34086.9 hPa SW 7.7 km/h 25.9 km/h 79 % 0 mm
18:27 -13.9 °C -15.7 °C 34086.9 hPa SW 7.7 km/h 25.9 km/h 80 % 0 mm
18:32 -14 °C -15.8 °C 34086.9 hPa SW 7.7 km/h 25.9 km/h 80 % 0 mm
18:37 -14 °C -15.8 °C 34086.9 hPa WSW 7.7 km/h 18.2 km/h 80 % 0 mm
18:42 -14.1 °C -15.7 °C 34086.9 hPa SW 7.7 km/h 18.2 km/h 81 % 0 mm
18:47 -14.1 °C -15.7 °C 34086.9 hPa SW 7.7 km/h 15.6 km/h 81 % 0 mm
18:52 -14.1 °C -15.8 °C 34086.9 hPa SW 7.7 km/h 15.6 km/h 81 % 0 mm
18:57 -14.1 °C -15.8 °C 34086.9 hPa SW 7.7 km/h 12.9 km/h 81 % 0 mm
19:02 -14.2 °C -15.8 °C 34086.9 hPa SSW 5.1 km/h 12.9 km/h 81 % 0 mm
19:07 -14.6 °C -16.1 °C 34086.9 hPa SSW 5.1 km/h 12.9 km/h 82 % 0 mm
19:12 -14.9 °C -16.2 °C 34086.9 hPa SSW 2.6 km/h 12.9 km/h 85 % 0 mm
19:17 -15.1 °C -16.1 °C 34086.9 hPa SSW 5.1 km/h 7.7 km/h 88 % 0 mm
19:22 -15.1 °C -16.1 °C 34086.9 hPa SSW 5.1 km/h 7.7 km/h 88 % 0 mm
19:32 -14.9 °C -15.9 °C 34086.9 hPa SW 7.7 km/h 10.3 km/h 88 % 0 mm
19:37 -14.8 °C -15.9 °C 34086.9 hPa SW 10.3 km/h 10.3 km/h 87 % 0 mm
19:42 -14.8 °C -16 °C 34086.9 hPa SW 15.6 km/h 15.6 km/h 86 % 0 mm
19:47 -14.7 °C -15.9 °C 34086.9 hPa SW 7.7 km/h 15.6 km/h 85 % 0 mm
19:52 -14.7 °C -16.1 °C 34086.9 hPa SSW 7.7 km/h 18.2 km/h 84 % 0 mm
19:57 -14.7 °C -16.1 °C 34097 hPa SSW 10.3 km/h 18.2 km/h 84 % 0 mm
20:02 -14.8 °C -16.1 °C 34086.9 hPa SW 10.3 km/h 18.2 km/h 85 % 0 mm
20:07 -14.9 °C -16.2 °C 34086.9 hPa South 5.1 km/h 18.2 km/h 85 % 0 mm
20:12 -15.1 °C -16.3 °C 34086.9 hPa SSW 2.6 km/h 15.6 km/h 86 % 0 mm
20:17 -15.2 °C -16.4 °C 34086.9 hPa SW 5.1 km/h 12.9 km/h 86 % 0 mm
20:22 -15.4 °C -16.5 °C 34073.3 hPa SSW 2.6 km/h 10.3 km/h 87 % 0 mm
20:27 -15.5 °C -16.5 °C 34086.9 hPa SSW 5.1 km/h 7.7 km/h 88 % 0 mm
20:32 -15.5 °C -16.4 °C 34086.9 hPa SSW 5.1 km/h 7.7 km/h 89 % 0 mm
20:42 -15.6 °C -16.6 °C 34073.3 hPa Calm   7.7 km/h 88 % 0 mm
20:47 -15.7 °C -16.7 °C 34073.3 hPa Calm   7.7 km/h 88 % 0 mm
20:52 -15.9 °C -16.9 °C 34073.3 hPa Calm   5.1 km/h 88 % 0 mm
20:57 -16.1 °C -16.9 °C 34086.9 hPa Calm   5.1 km/h 89 % 0 mm
21:02 -16.2 °C -17 °C 34086.9 hPa Calm   5.1 km/h 90 % 0 mm
21:07 -16.2 °C -16.9 °C 34086.9 hPa Calm   5.1 km/h 91 % 0 mm
21:12 -16.2 °C -16.8 °C 34073.3 hPa Calm   2.6 km/h 92 % 0 mm
21:17 -16.2 °C -16.9 °C 34073.3 hPa Calm     91 % 0 mm
21:22 -16.2 °C -16.9 °C 34073.3 hPa Calm     91 % 0 mm
21:27 -16.1 °C -16.7 °C 34073.3 hPa Calm     92 % 0 mm
21:32 -16 °C -16.8 °C 34073.3 hPa Calm     90 % 0 mm
21:37 -16.1 °C -16.9 °C 34063.2 hPa Calm     90 % 0 mm
21:42 -15.9 °C -16.7 °C 34063.2 hPa Calm     91 % 0 mm
21:47 -15.9 °C -16.8 °C 34063.2 hPa SSW 5.1 km/h 5.1 km/h 89 % 0 mm
21:52 -15.9 °C -16.8 °C 34049.6 hPa SSW 2.6 km/h 5.1 km/h 89 % 0 mm
21:57 -15.9 °C -16.8 °C 34049.6 hPa SSW 2.6 km/h 5.1 km/h 89 % 0 mm
22:02 -15.8 °C -16.7 °C 34049.6 hPa South 2.6 km/h 10.3 km/h 89 % 0 mm
22:07 -15.8 °C -16.8 °C 34049.6 hPa SW 7.7 km/h 10.3 km/h 88 % 0 mm
22:12 -15.7 °C -16.8 °C 34049.6 hPa SSW 10.3 km/h 15.6 km/h 87 % 0 mm
22:17 -15.6 °C -16.7 °C 34049.6 hPa SSW 7.7 km/h 15.6 km/h 87 % 0 mm
22:22 -15.6 °C -16.7 °C 34049.6 hPa SW 10.3 km/h 18.2 km/h 87 % 0 mm
22:27 -15.5 °C -16.6 °C 34049.6 hPa SSW 2.6 km/h 18.2 km/h 87 % 0 mm
22:32 -15.5 °C -16.6 °C 34049.6 hPa SSW 10.3 km/h 15.6 km/h 87 % 0 mm
22:37 -15.5 °C -16.6 °C 34049.6 hPa SSW 7.7 km/h 15.6 km/h 87 % 0 mm
22:42 -15.4 °C -16.6 °C 34049.6 hPa SW 5.1 km/h 15.6 km/h 87 % 0 mm
22:47 -15.4 °C -16.6 °C 34039.5 hPa South 2.6 km/h 15.6 km/h 86 % 0 mm
22:52 -15.4 °C -16.6 °C 34039.5 hPa South 2.6 km/h 15.6 km/h 86 % 0 mm
22:57 -15.4 °C -16.5 °C 34039.5 hPa South 2.6 km/h 10.3 km/h 87 % 0 mm
23:02 -15.4 °C -16.5 °C 34039.5 hPa SW 2.6 km/h 10.3 km/h 87 % 0 mm
23:07 -15.4 °C -16.5 °C 34029.3 hPa SSW 5.1 km/h 7.7 km/h 87 % 0 mm
23:12 -15.3 °C -16.4 °C 34029.3 hPa SSW 2.6 km/h 5.1 km/h 87 % 0 mm
23:17 -15.3 °C -16.4 °C 34029.3 hPa Calm   5.1 km/h 87 % 0 mm
23:22 -15.4 °C -16.5 °C 34029.3 hPa Calm   5.1 km/h 87 % 0 mm
23:27 -15.3 °C -16.4 °C 34029.3 hPa Calm   2.6 km/h 87 % 0 mm
23:32 -15.3 °C -16.4 °C 34029.3 hPa Calm   2.6 km/h 87 % 0 mm
23:37 -15.3 °C -16.4 °C 34029.3 hPa Calm   2.6 km/h 87 % 0 mm
23:42 -15.3 °C -16.4 °C 34029.3 hPa Calm     87 % 0 mm
23:47 -15.3 °C -16.4 °C 34029.3 hPa Calm     87 % 0 mm
23:52 -15.3 °C -16.3 °C 34029.3 hPa Calm     88 % 0 mm
23:57 -15.2 °C -16.2 °C 34015.8 hPa Calm   2.6 km/h 88 % 0 mm
Meteo18
Compliments of Weather Underground - 4 mb

Script developed by  Jim McMurry - jmcmurry@mwt.net Adapted for the template by  Wim van der Kuil - Leuven-Template.eu

You find our weather info also at:

European Weather Network

Weather Underground

Equipment we use:

Weather-station
Davis Vue

Weather-program
Meteobridge

Weather-server
Raspberry PI 2 B+

Provider
1 and 1

Davis Vue

Meteobridge

Raspberry PI 2 B+

1 and 1